Mercury, NV

8:50 AM PDT on August 18, 2017 (GMT -0700)
Mercury

Weather History for KDRA - July, 2013

Change the Weather History Date:

Friday, July 5, 2013

  Actual Average Record
Temperature  
Mean Temperature 92 °F 84 °F  
Max Temperature 107 °F 99 °F 112 °F (2007)
Min Temperature 78 °F 69 °F 61 °F (1998)
Degree Days  
Heating Degree Days 0    
Cooling Degree Days 28    
Growing Degree Days 42 (Base 50)    
Moisture  
Dew Point 40 °F    
Average Humidity 15    
Maximum Humidity 25    
Minimum Humidity 4    
Precipitation  
Precipitation 0.00 in 0.00 in 0.57 in (2015)
Month to date precipitation 0.03  
Year to date precipitation 2.88  
Sea Level Pressure  
Sea Level Pressure 29.60 in    
Wind  
Wind Speed 11 mph (SSW)    
Max Wind Speed 25 mph    
Max Gust Speed 36 mph    
Visibility 10 miles    
Events      
T = Trace of Precipitation, MM = Missing Value Source: NWS Daily Summary

Daily Weather History Graph

Daily Weather History Graph

Search for Another Location

Airport or City:

Trip Planner

Search our weather history database for the weather conditions in past years. The results will help you decide how hot, cold, wet, or windy it might be!

Date:

Astronomy

Jul. 05, 2013 Rise Set
Actual Time 5:31 AM PDT 8:05 PM PDT
Civil Twilight 5:01 AM PDT 8:36 PM PDT
Nautical Twilight 4:23 AM PDT 9:13 PM PDT
Astronomical Twilight 3:41 AM PDT 9:55 PM PDT
Moon 3:32 AM PDT (7/5) 6:05 PM PDT (7/5)
Length of Visible Light 15h 35m
Length of Day
14h 34m
Waning Crescent, 6% of the Moon is Illuminated
Jul 5
Waning Crescent
Jul 8
New
Jul 15
First Quarter
Jul 22
Full
Jul 29
Last Quarter

Hourly Weather History & Observations

Time (PDT) Temp. Dew Point Humidity Pressure Visibility Wind Dir Wind Speed Gust Speed Precip Events Conditions
12:52 AM 88.0 °F 42.1 °F 20% 29.62 in 10.0 mi NE 10.4 mph - N/A   Clear
1:52 AM 87.1 °F 44.1 °F 22% 29.63 in 10.0 mi NE 12.7 mph - N/A   Clear
2:52 AM 86.0 °F 42.1 °F 21% 29.62 in 10.0 mi Calm Calm - N/A   Clear
3:52 AM 84.9 °F 44.1 °F 24% 29.61 in 10.0 mi NE 8.1 mph - N/A   Clear
4:52 AM 81.0 °F 42.1 °F 25% 29.62 in 10.0 mi East 4.6 mph - N/A   Clear
5:52 AM 78.1 °F 39.9 °F 25% 29.63 in 10.0 mi Calm Calm - N/A   Clear
6:52 AM 82.0 °F 42.1 °F 24% 29.64 in 10.0 mi Calm Calm - N/A   Clear
7:52 AM 87.1 °F 45.0 °F 23% 29.66 in 10.0 mi Calm Calm - N/A   Clear
8:52 AM 91.0 °F 44.1 °F 20% 29.66 in 10.0 mi WNW 3.5 mph - N/A   Clear
9:52 AM 95.0 °F 45.0 °F 18% 29.64 in 10.0 mi SSW 3.5 mph - N/A   Clear
10:52 AM 99.0 °F 44.1 °F 15% 29.62 in 10.0 mi SW 20.7 mph 27.6 mph N/A   Clear
11:52 AM 102.9 °F 43.0 °F 13% 29.62 in 10.0 mi SW 18.4 mph 26.5 mph N/A   Clear
12:52 PM 104.0 °F 42.1 °F 12% 29.62 in 10.0 mi SW 19.6 mph 29.9 mph N/A   Clear
1:52 PM 104.0 °F 34.0 °F 9% 29.60 in 10.0 mi SW 23.0 mph 31.1 mph N/A   Clear
2:52 PM 105.1 °F 34.0 °F 9% 29.57 in 10.0 mi South 16.1 mph 27.6 mph N/A   Clear
3:52 PM 102.9 °F 32.0 °F 8% 29.55 in 10.0 mi WSW 17.3 mph 31.1 mph N/A   Clear
4:52 PM 105.1 °F 35.1 °F 9% 29.53 in 10.0 mi South 23.0 mph 35.7 mph N/A   Clear
5:52 PM 104.0 °F 30.9 °F 8% 29.53 in 10.0 mi SSW 25.3 mph 35.7 mph N/A   Clear
6:52 PM 100.9 °F 30.0 °F 8% 29.53 in 10.0 mi WSW 18.4 mph 26.5 mph N/A   Clear
7:52 PM 98.1 °F 35.1 °F 11% 29.54 in 10.0 mi SW 16.1 mph 24.2 mph N/A   Clear
8:52 PM 97.0 °F 37.9 °F 13% 29.55 in 10.0 mi SW 13.8 mph 25.3 mph N/A   Clear
9:52 PM 95.0 °F 39.9 °F 15% 29.57 in 10.0 mi SSW 16.1 mph 21.9 mph N/A   Clear
10:52 PM 93.0 °F 42.1 °F 17% 29.59 in 10.0 mi South 12.7 mph - N/A   Clear
11:52 PM 90.0 °F 43.0 °F 19% 29.60 in 10.0 mi South 10.4 mph - N/A   Clear